Nature

Herzliya Airport is located in the city of Herzliya at central Israel. The airport is mainly used by flight schools and for general aviation. It has no terminal.

AT EILAT AIRPORT YOU CAN FIND A SINGLE RUNWAY (11/29).

Scenery:

Sim Download Size Author
P3D & FSX LLHZ Herzliya 219.5MB Freeware Nis Tesler
P3D & FSX ICVFR Herzliya 22.8MB Freeware Chris Bell
X-Plane LLHZ – Herzliya Airport v1.0 7.63MB Freeware X-Plane.org

Charts:

File Name
General Aerodrome Chart
CVFR Entry / Exit Routes (CVFR)
CVFR Training Zones Chart
CVFR Helicopters Training Zones Chart
CVFR Traffic Pattrens Chart
Departure ATS Departure

METAR & TAF:

Available data for LLSD from the past hour
SDE DOV AIRPORT
Metar
LLSD 240450Z 10004KT 9000 NSC 30/12 Q1007

04:50 UTC

Wind: 100° 4kt

Visibility: 9000 m

Sky:

Temp: 30 deg C / 86 deg F

Dewpoint: 12 deg C / 53.6 deg F

Pressure: 1007 hPa

TAF
TAF LLSD 232321Z 2400/2424 13007KT CAVOK PROB30 2403/2405 5000 FU BECMG 2405/2407 24014KT BECMG 2410/2412 32010KT BECMG 2416/2418 VRB04KT PROB40 2423/2424 5000 BR BKN005 TX36/2408Z TN26/2402Z